Main page
METAR-TAF:

METAR-TAF

Airports :

Brownwood Regional Airport

Brownwood, Texas, United States

latitude: 31-48N, longitude: 098-57W, elevation: 1384 ft

Current weather observation

The report was made 4 hours and 23 minutes ago, at 23:55 UTC
Wind 6 mph from the West
Temperature 66°F
Humidity 32%
Pressure 29.79 in. Hg
Visibility: 10 miles
Clear sky

METAR: KBWD 242355Z AUTO 28005KT 10SM CLR 19/02 A2979 RMK AO1

Time: 22:18 (04:18 UTC)


TAF: missing

Weather observations and forecasts of more than 4000 airports (METAR and TAF reports).

The available stations are represented by yellow and red dots on the map.

Hover mouse over dot to see the name of the station.

Then click to see weather observations and forecasts.

To change the map : click on the green buttons with a black cross to zoom in, on the green button with a dash to zoom out, or on the green arrows for adjacent maps.


METAR-TAF: